Location: Étang Rond
(42.7927°N, 1.0661°E)
Time: 01:35:22
(UTC+00:00)

CZ-3 R/B - Pass Details

Date: 08 November 2025
Orbit: 547 x 10009 km, 28.3° (Epoch: 07 December)

Event Time Altitude Azimuth Distance (km) Brightness Sun altitude
Exits shadow 05:03:31 - 240° (WSW) 7,970 5.7 -17.7°
Reaches altitude 10° 05:10:58 10° 231° (SW) 5,534 5.0 -16.4°
Maximum altitude 05:20:40 24° 185° (S) 2,547 3.7 -14.6°
Drops below altitude 10° 05:25:24 10° 131° (SE) 2,552 4.7 -13.8°
Sets 05:27:37 0° 114° (ESE) 3,132 5.9 -13.4°
